Hourly Data Report for May 24, 2021

TOBERMORY RCS
ONTARIO
Current Station Operator: ECCC - MSC

45°14'00.000" N
81°38'00.000" W
213.50 m
6128330
71767
TTR

Download Data

Hourly Data (May 2021)
Hourly Data Report for May 24, 2021
TIME
LST
Temp Definition
°C
Dew Point Definition
°C
Rel Hum Definition
%
Precip. Amount Definition
mm

Wind Dir Definition
10's deg

Wind Spd Definition
km/h
Visibility Definition
km
Stn Press Definition
kPa
Hmdx Definition


Wind Chill Definition


Weather Definition


00:00 10.0 1.8 57 0.0 8 9   99.87     LegendNANA
01:00 9.6 1.5 57 0.0 8 8   99.85     LegendNANA
02:00 9.4 2.1 60 0.0 8 11   99.85     LegendNANA
03:00 8.7 3.5 69 0.0 7 8   99.83     LegendNANA
04:00 7.7 3.8 76 0.0 6 5   99.86     LegendNANA
05:00 7.2 4.7 85 0.0 6 4   99.86     LegendNANA
06:00 8.9 4.5 74 0.0 8 6   99.88     LegendNANA
07:00 11.7 3.3 56 0.0 11 15   99.86     LegendNANA
08:00 14.0 4.5 53 0.0 11 15   99.81     LegendNANA
09:00 15.5 4.4 48 0.0 12 13   99.80     LegendNANA
10:00 18.2 7.2 49 0.0 15 11   99.75     LegendNANA
11:00 17.9 6.1 46 0.0 17 12   99.74     LegendNANA
12:00 18.1 5.6 44 0.0 19 13   99.71     LegendNANA
13:00 18.9 7.1 46 0.0 20 9   99.67     LegendNANA
14:00 19.4 7.0 44 0.0 21 11   99.61     LegendNANA
15:00 19.0 7.1 46 0.0 21 13   99.51     LegendNANA
16:00 18.3 7.4 49 0.0 24 10   99.45     LegendNANA
17:00 18.2 8.2 52 0.0 23 11   99.42     LegendNANA
18:00 17.4 7.7 53 0.0 21 8   99.38     LegendNANA
19:00 15.9 8.1 60 0.0 21 3   99.36     LegendNANA
20:00 15.1 8.1 63 0.0 14 4   99.29     LegendNANA
21:00 15.0 8.2 64 0.0 15 5   99.29     LegendNANA
22:00 15.3 9.4 68 0.0 17 6   99.23     LegendNANA
23:00 15.6 10.6 72 0.0 17 8   99.22     LegendNANA

Notes on Data Quality.

Legend

  • E = Estimated
  • M = Missing
  • NA = Not Available*
  • [empty] = Indicates an unobserved value
Date modified: